User: anonymous   Login
Location: Unspecified
(0.0000°N, 0.0000°E)
Time: 11:04:05
(UTC+00:00)
Language:

RS-15 - Orbit

View from above orbital plane
View from above orbital plane
View from above satellite
View from above satellite

Ground track
Ground track

The orbit data is extracted from the following two-line orbital elements,

1 23439U 94085A   17268.77538980 -.00000036 +00000-0 +18097-3 0  9996
2 23439 064.8174 056.4721 0165270 228.4397 238.2458 11.27566466936750
Epoch (UTC): 25 September 2017 18:36:33
Eccentricity: 0.0165270
inclination: 64.8174°
perigee height: 1883 km
apogee height: 2161 km
right ascension of ascending node: 56.4721°
argument of perigee: 228.4397°
revolutions per day: 11.27566466
mean anomaly at epoch: 238.2458°
orbit number at epoch: 93675

The dashed part of the orbit path shows where the satellite is in the earth's shadow,  

DLR